Location: Godiavel Galaoual
(15.2485°N, 12.6604°W)
Time: 02:46:05
(UTC+00:00)

Vanguard 2 Rocket - Visible Passes

Search period start: 13 June 2021 00:00
Search period end: 23 June 2021 00:00
Orbit: 554 x 3325 km, 32.9° (Epoch: 12 June)

Date Brightness Start Highest point End Pass type
(mag) Time Alt. Az. Time Alt. Az. Time Alt. Az.
13 Jun 9.5 00:44:35 10° WNW 00:53:54 25° N 00:57:24 19° NNE visible
13 Jun 8.5 03:10:23 27° NNE 03:10:23 27° NNE 03:14:14 10° ENE visible
13 Jun 6.0 05:18:55 10° WNW 05:23:40 58° SW 05:27:30 10° SE visible
13 Jun 9.5 21:15:47 10° WSW 21:34:58 59° NNW 21:47:23 10° NE visible
13 Jun 9.7 23:40:17 10° WNW 23:52:44 31° NNW 00:00:36 10° NE visible
14 Jun 9.4 02:02:17 10° NW 02:16:04 - ENE 02:06:37 21° NNW visible
14 Jun 6.4 04:22:02 33° NW 04:24:21 70° NNE 04:28:27 10° ESE visible
14 Jun 9.6 20:12:22 10° WSW 20:32:53 74° NNW 20:47:26 10° NE visible
14 Jun 9.8 22:35:32 10° W 22:51:12 39° NNW 23:01:07 10° NE visible
15 Jun 9.3 00:59:32 10° NW 01:08:52 27° N 01:09:57 26° N visible
15 Jun 8.5 03:27:36 21° E 03:27:36 21° E 03:29:08 10° E visible
15 Jun 7.1 05:33:39 10° W 05:37:29 24° SW 05:40:43 10° SSE visible
15 Jun 9.7 19:09:49 10° SW 19:30:29 90° SE 19:47:03 10° ENE visible
15 Jun 9.8 21:30:56 10° W 21:49:18 48° NNW 22:01:24 10° NE visible
15 Jun 9.6 23:55:44 10° WNW 00:07:41 30° N 00:13:15 18° NE visible
16 Jun 9.6 02:16:13 10° NW 02:19:00 18° NW 02:19:00 18° NW visible
16 Jun 6.4 04:38:56 50° S 04:38:56 50° S 04:42:23 10° SE visible
16 Jun 9.8 20:27:00 10° WSW 20:47:02 60° NNW 21:01:24 10° NE visible
16 Jun 9.8 22:51:12 10° WNW 23:06:03 35° NNW 23:15:32 10° NE visible
17 Jun 9.2 01:13:56 10° NW 01:22:15 30° N 01:22:15 30° N visible
17 Jun9.203:44:08ESE03:44:08ESE03:28:00WNWvisible
17 Jun 9.9 19:23:57 10° WSW 19:44:28 73° NNW 20:01:02 10° NE visible
17 Jun 10.0 21:46:28 10° W 22:03:58 42° NNW 22:15:38 10° NE visible
18 Jun 9.3 00:10:44 10° WNW 00:22:45 32° N 00:25:30 28° NNE visible
18 Jun 9.9 02:30:01 10° NW 02:31:15 14° NW 02:31:15 14° NW visible
18 Jun 8.2 04:55:06 12° S 04:55:06 12° S 04:55:33 10° SSE visible
18 Jun 10.1 20:42:09 10° W 21:01:29 50° NNW 21:15:29 10° NE visible
18 Jun 9.8 23:06:39 10° WNW 23:21:07 34° N 23:28:43 16° NE visible
19 Jun 9.3 01:27:59 10° NW 01:34:28 29° NNW 01:34:28 29° NNW visible
19 Jun 10.1 19:38:37 10° WSW 19:58:43 60° NNW 20:15:02 10° NE visible
19 Jun 10.0 22:02:06 10° WNW 22:18:56 38° N 22:30:10 10° NE visible
20 Jun 9.1 00:25:12 10° NW 00:37:40 38° N 00:37:40 38° N visible
20 Jun 10.2 20:57:38 10° W 21:16:18 44° NNW 21:29:50 10° NE visible
20 Jun 9.4 23:21:39 10° WNW 23:36:15 37° N 23:40:51 28° NE visible
21 Jun 9.6 01:41:52 10° NW 01:46:36 24° NW 01:46:36 24° NW visible
21 Jun 10.3 19:53:44 10° W 20:13:18 51° NNW 20:29:11 10° NE visible
21 Jun 9.9 22:17:30 10° WNW 22:34:07 38° N 22:44:03 13° ENE visible
22 Jun 9.1 00:39:17 10° NW 00:49:47 42° NNW 00:49:47 42° NNW visible
22 Jun 10.2 21:13:11 10° WNW 21:31:25 41° N 21:44:28 10° ENE visible
